Powrót do katalogu

COSMOS 256

AktywnyMilitariaLEO
NORAD 3576·PAYLOAD·🇷🇺 Russia

Wystrzelony Nov 30, 1968 z Plesetsk Cosmodrome

Loading…

Następne Przeloty (najbliższe 24 godziny)

TLE

ŚwieżeSource: Space-Track

Epoka: Sep 14, 2026, 02:20 UTC

1 03576U 68106A   26257.09746116  .00000248  00000-0  69447-3 0  9995
2 03576  74.0504 317.9333 0034439 302.1952  75.4368 13.16884263777407

Śledź COSMOS 256 w czasie rzeczywistym z AllMySat

Download on the App Store